Regional Weather Roundup
Issued by NWS Glasgow, MT

Home | Current Version | Previous Version | Text Only | Print | Product List | Glossary On
Versions: 1 2 3 4 5 6 7 8 9 10 11 12 13 14 15 16 17 18 19 20 21 22 23 24 25 26 27 28 29 30 31 32 33 34 35 36 37 38 39 40 41 42 43 44 45 46 47 48 49 50
000
ASUS45 KGGW 291515
RWRGGW
HOURLY REGIONAL WEATHER ROUNDUP FOR NORTHEAST MONTANA
NATIONAL WEATHER SERVICE GLASGOW MONTANA
900 AM MDT SAT AUG 29 2015

NOTE: "FAIR" INDICATES FEW OR NO CLOUDS BELOW 12,000 FEET WITH NO
SIGNIFICANT WEATHER AND/OR OBSTRUCTIONS TO VISISBILITY.

NORTHEAST MONTANA


CITY           SKY/WX    TMP DP  RH WIND       PRES   REMARKS
GLASGOW        CLOUDY    72  47  40 CALM      29.90S HAZE
PLENTYWOOD       N/A     66  43  43 S3G12       N/A
WOLF POINT     CLOUDY    66  48  52 CALM      29.89S HAZE
JORDAN           N/A     71  45  39 CALM      29.92F
WINNETT          N/A     67  49  52 SW1         N/A
SIDNEY         PTSUNNY   63  52  67 S7        29.91F
GLENDIVE       MOSUNNY   68  48  49 SE5       29.96F
MALTA            N/A     65  51  60 E2          N/A
SCOBEY           N/A     65  45  48 CALM      29.90R HAZE

FORT PECK REPORTS


CITY           SKY/WX    TMP DP  RH WIND       PRES   REMARKS
FORT PECK        N/A     70  54  56 S6          N/A
THE PINES        N/A     74  41  30 SW5         N/A

SOUTHEAST MONTANA


CITY           SKY/WX    TMP DP  RH WIND       PRES   REMARKS
BILLINGS       PTSUNNY   67  44  43 SW9       30.02R
MILES CITY     SUNNY     69  46  43 SE7       29.94F HAZE
BAKER          SUNNY     76  48  37 E7        29.99S HAZE
LIVINGSTON     MOSUNNY   64  42  44 NW6       30.07S HAZE

CENTRAL MONTANA


CITY           SKY/WX    TMP DP  RH WIND       PRES   REMARKS
HAVRE          CLOUDY    71  47  42 CALM      29.87S HAZE
LEWISTOWN      CLOUDY    69  46  43 SE6       30.01S HAZE
GREAT FALLS    PTSUNNY   77  40  26 SE13      29.91F HAZE
CUT BANK       CLOUDY    60  39  45 E6        29.89S HAZE
HELENA         CLOUDY    69  44  40 W7        29.97F SMOKE
BUTTE          CLOUDY    69  41  36 S8        30.06F HAZE
BOZEMAN        CLOUDY    64  46  52 SE3       30.05F HAZE

WESTERN MONTANA


CITY           SKY/WX    TMP DP  RH WIND       PRES   REMARKS
MISSOULA       CLOUDY    58  46  64 CALM      29.86F HAZE
KALISPELL      NOT AVBL

NORTH DAKOTA


CITY           SKY/WX    TMP DP  RH WIND       PRES   REMARKS
WILLISTON      PTSUNNY   67  51  56 S6        29.91F HAZE
DICKINSON      SUNNY     76  49  38 S8        29.96S HAZE
MINOT          CLOUDY    69  53  56 S8        29.90S HAZE
BISMARCK       CLOUDY    67  61  81 CALM      29.96S

SOUTHERN SASKATCHEWAN


CITY           SKY/WX    TMP DP  RH WIND       PRES   REMARKS
REGINA         CLOUDY    64  57  77 VRB2      29.83S SMOKE
MOOSE JAW      PTSUNNY   72  55  56 SW6       29.82S SMOKE
ESTEVAN        CLOUDY    66  55  68 S7        29.88R SMOKE
SWIFT CURRENT  SUNNY     72  46  40 SW12      29.85R HAZE




USA.gov is the U.S. government's official web portal to all federal, state and local government web resources and services.